Location: Lawrence
(38.9720°N, 95.2350°W)
Time: 16:38:55
(UTC-05:00)

Amateur Radio Satellites - All Passes

Search period start: 24 July 2014 16:08
Search period end: 25 July 2014 16:08
Location: Lawrence, 38.9720°N, 95.2350°W

Satellite Date Start Highest point End Downlink Frequencies (MHz)
Time Altitude Azimuth
TMSAT-1 24 Jul 16:14:15 16:19:19 46° 261° (W) 16:24:26 436.925 FM
SO-50 24 Jul 16:22:01 16:23:08 11° 322° (NW) 16:24:15 436.795 FM
Gurwin Techsat 1B 24 Jul 16:36:47 16:40:45 21° 267° (W) 16:44:44 435.225 FM
KITSAT 1 24 Jul 16:42:58 16:51:01 64° 57° (ENE) 16:58:59 435.175 FM
Uosat F 24 Jul 16:54:16 16:59:19 80° 257° (WSW) 17:04:24 435.120 FM
UOSAT-12 24 Jul 17:06:10 17:10:24 35° 309° (NW) 17:14:42 437.025 FM, 437.400 FM
JAS-1B 24 Jul 17:07:58 17:14:06 22° 274° (W) 17:20:51 435.800 - 435.900 CW/SSB
RS-15 24 Jul 17:10:26 17:20:05 33° 321° (NW) 17:29:42 29.354 - 29.394 USB, Beacon 29.352 USB
JAS-2 24 Jul 17:18:26 17:23:55 21° 60° (ENE) 17:29:13 435.800 - 435.900 CW/SSB, 435.910 FM
OPAL 24 Jul 17:29:34 17:34:38 81° 105° (ESE) 17:39:45 ?
Hamsat 24 Jul 17:43:06 17:46:12 21° 68° (ENE) 17:49:19 145.90 MHz
Saudisat 1A 24 Jul 17:48:40 17:52:45 36° 52° (NE) 17:56:48 436.775 MHz
AO-7 24 Jul 17:50:54 17:58:36 40° 261° (W) 18:06:21 29.400 - 29.500 MHz
KITSAT 1 24 Jul 18:39:20 18:45:47 27° 255° (WSW) 18:52:13 435.175 FM
JAS-2 24 Jul 19:00:14 19:08:07 82° 257° (WSW) 19:15:44 435.800 - 435.900 CW/SSB, 435.910 FM
OPAL 24 Jul 19:10:45 19:12:51 13° 301° (WNW) 19:14:57 ?
Hamsat 24 Jul 19:18:18 19:21:58 30° 264° (W) 19:25:41 145.90 MHz
Saudisat 1A 24 Jul 19:28:42 19:32:07 22° 248° (WSW) 19:35:30 436.775 MHz
RS-15 24 Jul 19:30:55 19:37:21 17° 356° (N) 19:43:49 29.354 - 29.394 USB, Beacon 29.352 USB
STRAND 1 24 Jul 19:44:55 19:49:48 44° 99° (E) 19:54:39 ?
SO-67 24 Jul 19:52:25 19:55:53 78° 259° (W) 19:59:22 435.3500 MHz FM
HO-68 24 Jul 20:03:03 20:08:02 21° 58° (ENE) 20:13:01 435.675 MHz FM
JAS-2 24 Jul 20:49:52 20:53:55 15° 272° (W) 20:57:56 435.800 - 435.900 CW/SSB, 435.910 FM
UKube-1 24 Jul 21:11:20 21:15:10 31° 70° (ENE) 21:19:02 145.840 MHz, 145.915 MHz
STRAND 1 24 Jul 21:24:53 21:28:40 21° 295° (WNW) 21:32:26 ?
SO-50 24 Jul 21:31:38 21:33:15 12° 39° (NE) 21:34:52 436.795 FM
RS-15 24 Jul 21:46:15 21:55:12 27° 32° (NNE) 22:04:18 29.354 - 29.394 USB, Beacon 29.352 USB
HO-68 24 Jul 21:47:47 21:54:58 77° 255° (WSW) 22:02:10 435.675 MHz FM
Oscar 11 24 Jul 22:01:20 22:05:30 51° 74° (ENE) 22:09:41 145.825 FM, Beacon 2401.500 USB
FUNcube-1 24 Jul 22:10:28 22:13:56 23° 69° (ENE) 22:17:21 145.950 - 145.970 MHz USB
MaSat-1 24 Jul 22:33:55 22:37:34 47° 109° (ESE) 22:41:53 437.345 MHz
UKube-1 24 Jul 22:48:00 22:51:23 22° 265° (W) 22:54:48 145.840 MHz, 145.915 MHz
SO-50 24 Jul 23:09:53 23:14:38 72° 57° (ENE) 23:19:27 436.795 FM
Oscar 11 24 Jul 23:40:05 23:41:58 13° 269° (W) 23:43:51 145.825 FM, Beacon 2401.500 USB
HO-68 24 Jul 23:41:42 23:43:41 11° 272° (W) 23:45:40 435.675 MHz FM
FUNcube-1 24 Jul 23:46:24 23:50:12 28° 263° (W) 23:53:57 145.950 - 145.970 MHz USB
UOSAT-12 24 Jul 23:57:12 00:00:39 20° 45° (NE) 00:04:05 437.025 FM, 437.400 FM
RS-15 24 Jul 23:58:22 00:09:29 82° 58° (ENE) 00:21:00 29.354 - 29.394 USB, Beacon 29.352 USB
Lituanica SAT-1 25 Jul 00:01:53 00:03:55 53° 140° (SE) 00:05:59 437.275 MHz beacon
MaSat-1 25 Jul 00:12:36 00:15:20 17° 311° (NW) 00:18:20 437.345 MHz
SO-50 25 Jul 00:52:38 00:54:37 13° 253° (WSW) 00:56:37 436.795 FM
ISS 25 Jul 01:05:50 01:08:50 32° 134° (SE) 01:11:52 145.800 FM
Lituanica SAT-1 25 Jul 01:36:28 01:36:47 10° 336° (NNW) 01:37:07 437.275 MHz beacon
UOSAT-12 25 Jul 01:36:32 01:41:09 56° 243° (WSW) 01:45:42 437.025 FM, 437.400 FM
Sapphire 25 Jul 01:44:08 01:49:02 37° 110° (ESE) 01:53:58 437.095 MHz 1200 baud AX-25 AFSK
RS-15 25 Jul 02:12:20 02:20:35 25° 258° (WSW) 02:29:07 29.354 - 29.394 USB, Beacon 29.352 USB
PCSat 25 Jul 02:17:25 02:22:49 80° 116° (ESE) 02:28:15 145.825 MHz
Oscar 19 25 Jul 02:18:51 02:23:26 32° 97° (E) 02:28:01 437.125 CW, 437.150 USB
AO-40 25 Jul 02:27:02 03:34:55 13° 112° (ESE) 04:21:20 Beacon 2401.320
ISS 25 Jul 02:42:35 02:45:33 29° 331° (NNW) 02:48:33 145.800 FM
Oscar 16 25 Jul 02:46:03 02:51:11 62° 101° (E) 02:56:17 437.025 USB, Beacon 2401.1428
ITAMSAT 1 25 Jul 02:57:55 03:02:36 34° 97° (E) 03:07:14 435.822 SSB
JAS-1B 25 Jul 03:02:52 03:11:05 32° 91° (E) 03:18:18 435.800 - 435.900 CW/SSB
OPAL 25 Jul 03:07:30 03:10:14 15° 60° (ENE) 03:12:57 ?
AO-Echo 25 Jul 03:10:21 03:15:18 47° 99° (E) 03:20:03 ?
Gurwin Techsat 1B 25 Jul 03:13:50 03:17:39 20° 93° (E) 03:21:27 435.225 FM
AO-27 25 Jul 03:15:40 03:20:44 51° 100° (E) 03:25:45 436.795 MHz FM
Uribyol 2 25 Jul 03:18:14 03:23:20 57° 101° (E) 03:28:23 436.500 FM
Sapphire 25 Jul 03:27:44 03:32:29 31° 308° (NW) 03:37:15 437.095 MHz 1200 baud AX-25 AFSK
Oscar 19 25 Jul 03:58:16 04:02:40 29° 292° (WNW) 04:07:05 437.125 CW, 437.150 USB
PCSat 25 Jul 04:03:28 04:06:53 17° 315° (NW) 04:10:19 145.825 MHz
AO-7 25 Jul 04:03:53 04:07:18 13° 89° (E) 04:10:41 29.400 - 29.500 MHz
ISS 25 Jul 04:22:12 04:23:09 11° 350° (N) 04:24:06 145.800 FM
Oscar 16 25 Jul 04:26:55 04:30:00 16° 297° (WNW) 04:33:05 437.025 USB, Beacon 2401.1428
TMSAT-1 25 Jul 04:31:02 04:36:21 79° 103° (ESE) 04:41:38 436.925 FM
ITAMSAT 1 25 Jul 04:37:36 04:41:56 28° 293° (WNW) 04:46:16 435.822 SSB
OPAL 25 Jul 04:43:40 04:48:34 64° 256° (WSW) 04:53:30 ?
AO-Echo 25 Jul 04:50:02 04:53:40 20° 296° (WNW) 04:57:13 ?
JAS-1B 25 Jul 04:52:39 05:02:01 60° 292° (WNW) 05:10:10 435.800 - 435.900 CW/SSB
Gurwin Techsat 1B 25 Jul 04:52:45 04:57:51 48° 289° (WNW) 05:02:55 435.225 FM
AO-27 25 Jul 04:56:15 04:59:49 19° 296° (WNW) 05:03:23 436.795 MHz FM
Uribyol 2 25 Jul 04:59:02 05:02:19 17° 297° (WNW) 05:05:36 436.500 FM
Uosat F 25 Jul 05:03:34 05:08:08 34° 98° (E) 05:12:40 435.120 FM
Oscar 10/S400 25 Jul 05:43:13 07:03:46 44° 235° (SW) 12:21:14 145.825 - 145.975 CW/USB, Beacon 145.810 USB
AO-7 25 Jul 05:52:55 06:01:17 77° 106° (ESE) 06:09:34 29.400 - 29.500 MHz
ISS 25 Jul 05:59:59 06:01:07 11° 11° (N) 06:02:15 145.800 FM
TMSAT-1 25 Jul 06:13:09 06:15:34 13° 299° (WNW) 06:17:59 436.925 FM
Lituanica SAT-1 25 Jul 06:15:27 06:17:17 26° 33° (NNE) 06:19:07 437.275 MHz beacon
JAS-2 25 Jul 06:15:43 06:17:58 12° 86° (E) 06:20:09 435.800 - 435.900 CW/SSB, 435.910 FM
Uosat F 25 Jul 06:42:39 06:46:45 26° 293° (WNW) 06:50:50 435.120 FM
JAS-1B 25 Jul 06:45:54 06:50:17 14° 313° (NW) 06:54:30 435.800 - 435.900 CW/SSB
MaSat-1 25 Jul 06:54:22 06:57:16 15° 48° (NE) 07:00:09 437.345 MHz
STRAND 1 25 Jul 06:59:34 07:04:35 57° 73° (ENE) 07:09:39 ?
Hamsat 25 Jul 07:04:33 07:08:43 49° 99° (E) 07:12:54 145.90 MHz
KITSAT 1 25 Jul 07:09:36 07:17:21 52° 112° (ESE) 07:25:07 435.175 FM
ISS 25 Jul 07:35:35 07:38:40 32° 30° (NNE) 07:41:44 145.800 FM
AO-7 25 Jul 07:46:57 07:53:13 25° 305° (NW) 07:59:28 29.400 - 29.500 MHz
Lituanica SAT-1 25 Jul 07:48:58 07:49:42 11° 228° (SW) 07:50:26 437.275 MHz beacon
Saudisat 1A 25 Jul 07:56:47 07:58:22 12° 108° (ESE) 07:59:58 436.775 MHz
JAS-2 25 Jul 07:57:50 08:04:00 79° 286° (WNW) 08:09:28 435.800 - 435.900 CW/SSB, 435.910 FM
PANSAT 25 Jul 08:06:39 08:08:59 15° 172° (S) 08:11:19 not established
MaSat-1 25 Jul 08:30:02 08:35:25 89° 249° (WSW) 08:40:29 437.345 MHz
STRAND 1 25 Jul 08:41:04 08:44:07 16° 268° (W) 08:47:11 ?
Hamsat 25 Jul 08:41:59 08:44:16 14° 294° (WNW) 08:46:34 145.90 MHz
SO-67 25 Jul 08:50:32 08:53:56 51° 285° (WNW) 08:57:18 435.3500 MHz FM
KITSAT 1 25 Jul 09:05:35 09:12:58 38° 311° (NW) 09:20:24 435.175 FM
ISS 25 Jul 09:12:24 09:15:19 28° 227° (SW) 09:18:13 145.800 FM
HO-68 25 Jul 09:18:04 09:23:19 22° 93° (E) 09:28:31 435.675 MHz FM
Saudisat 1A 25 Jul 09:32:59 09:37:23 66° 303° (WNW) 09:41:48 436.775 MHz
PANSAT 25 Jul 09:46:05 09:48:32 16° 185° (S) 09:50:59 not established
JAS-2 25 Jul 09:46:14 09:47:48 11° 306° (NW) 09:49:21 435.800 - 435.900 CW/SSB, 435.910 FM
Oscar 11 25 Jul 09:53:30 09:53:47 10° 90° (E) 09:54:05 145.825 FM, Beacon 2401.500 USB
MaSat-1 25 Jul 10:11:08 10:11:53 10° 263° (W) 10:12:36 437.345 MHz
Sapphire 25 Jul 10:33:17 10:37:45 25° 50° (NE) 10:42:11 437.095 MHz 1200 baud AX-25 AFSK
UKube-1 25 Jul 10:36:19 10:40:41 68° 102° (ESE) 10:45:00 145.840 MHz, 145.915 MHz
HO-68 25 Jul 11:04:25 11:11:30 66° 290° (WNW) 11:18:32 435.675 MHz FM
PCSat 25 Jul 11:06:41 11:11:57 49° 57° (ENE) 11:17:10 145.825 MHz
KITSAT 1 25 Jul 11:08:39 11:11:10 12° 338° (NNW) 11:13:42 435.175 FM
Oscar 11 25 Jul 11:26:04 11:30:22 64° 285° (WNW) 11:34:39 145.825 FM, Beacon 2401.500 USB
FUNcube-1 25 Jul 11:36:04 11:40:10 56° 100° (E) 11:44:17 145.950 - 145.970 MHz USB
UKube-1 25 Jul 12:15:05 12:16:17 11° 298° (WNW) 12:17:30 145.840 MHz, 145.915 MHz
Sapphire 25 Jul 12:16:12 12:21:23 47° 248° (WSW) 12:26:32 437.095 MHz 1200 baud AX-25 AFSK
PCSat 25 Jul 12:50:55 12:54:59 22° 254° (WSW) 12:59:02 145.825 MHz
HO-68 25 Jul 12:55:21 12:57:51 12° 309° (NW) 13:00:21 435.675 MHz FM
FUNcube-1 25 Jul 13:14:36 13:16:06 12° 296° (WNW) 13:17:35 145.950 - 145.970 MHz USB
SO-50 25 Jul 13:24:24 13:28:15 29° 113° (ESE) 13:32:09 436.795 FM
Oscar 19 25 Jul 13:34:36 13:39:21 41° 70° (ENE) 13:44:07 437.125 CW, 437.150 USB
JAS-1B 25 Jul 13:45:10 13:52:12 28° 57° (ENE) 13:59:49 435.800 - 435.900 CW/SSB
Oscar 16 25 Jul 14:01:51 14:06:57 79° 75° (ENE) 14:12:06 437.025 USB, Beacon 2401.1428
TMSAT-1 25 Jul 14:14:09 14:16:41 14° 61° (ENE) 14:19:14 436.925 FM
ITAMSAT 1 25 Jul 14:14:39 14:19:37 46° 71° (ENE) 14:24:35 435.822 SSB
RS-15 25 Jul 14:19:51 14:30:45 61° 113° (ESE) 14:41:23 29.354 - 29.394 USB, Beacon 29.352 USB
AO-Echo 25 Jul 14:21:30 14:26:38 55° 73° (ENE) 14:31:50 ?
AO-27 25 Jul 14:32:32 14:37:43 70° 74° (ENE) 14:42:56 436.795 MHz FM
Gurwin Techsat 1B 25 Jul 14:33:39 14:38:08 29° 67° (ENE) 14:42:37 435.225 FM
Uribyol 2 25 Jul 14:34:52 14:40:03 77° 75° (ENE) 14:45:16 436.500 FM
AO-7 25 Jul 15:01:11 15:06:50 21° 53° (NE) 15:12:28 29.400 - 29.500 MHz
KITSAT 1 25 Jul 15:04:27 15:10:39 23° 40° (NE) 15:16:49 435.175 FM
SO-50 25 Jul 15:04:50 15:08:45 29° 310° (NW) 15:12:44 436.795 FM
Oscar 19 25 Jul 15:14:54 15:18:49 22° 266° (W) 15:22:45 437.125 CW, 437.150 USB
JAS-1B 25 Jul 15:33:04 15:41:33 78° 257° (WSW) 15:51:20 435.800 - 435.900 CW/SSB
Oscar 16 25 Jul 15:45:40 15:46:52 11° 271° (W) 15:48:04 437.025 USB, Beacon 2401.1428
UOSAT-12 25 Jul 15:46:17 15:50:46 59° 118° (ESE) 15:55:22 437.025 FM, 437.400 FM
TMSAT-1 25 Jul 15:50:37 15:55:55 77° 257° (WSW) 16:01:15 436.925 FM
ITAMSAT 1 25 Jul 15:55:30 15:59:18 20° 266° (W) 16:03:07 435.822 SSB
